sat.trackr.live / text

‹ back to catalog

ONEWEB-0337

NORAD 49203 · 2021-083T

PAYLOAD ACTIVE UNKNOWN

§ Identity

Operator
Country
UK
Launch date
2021-09-14
Launch site
TYMSC
Launch vehicle
Mass (kg)
RCS (m²)

Purposes: comms

External: N2YO · Heavens-Above · Gunter

§ Orbital elements

Epoch: 2026-09-19T21:09:01.608768Z

Period
109.63 min
Inclination
87.8916°
Eccentricity
0.0001781
Mean motion
13.13468614 rev/d
Perigee alt
1,208.4 km
Apogee alt
1,211.1 km
Semi-major
7,587.9 km
B*
4.7018e-4
RAAN
301.3896°
Arg perigee
99.2455°
Mean anomaly
260.8875°
Rev number
24,334

§ Raw data

ONEWEB-03371 49203U 21083T   26262.88126862  .00000184  00000+0  47018-3 0  99962 49203  87.8916 301.3896 0001781  99.2455 260.8875 13.13468614243349

JSON: /api/v1/satellites/49203 · /tle

For live sub-satellite position, see the globe view (requires WebGL).

§ Visibility from observer

Set your observer location to see the next 7 days of passes ≥ 10°. The values pass through the URL so the page stays shareable.

No JS? Fill the form by hand. The geolocation button needs JavaScript.